Location: Andrest
(43.3200°N, 0.0641°E)
Time: 15:21:02
(UTC+00:00)

USA 238 DEB - Pass Details

Date: 01 December 2020
Orbit: 996 x 1216 km, 63.4° (Epoch: 22 January)

Event Time Altitude Azimuth Distance (km) Brightness Sun altitude
Rises 18:49:35 0° 218° (SW) 3,714 7.2 -25.6°
Reaches altitude 10° 18:52:08 10° 220° (SW) 2,780 6.4 -26.1°
Maximum altitude 18:58:40 79° 307° (NW) 1,058 3.6 -27.3°
Enters shadow 19:00:38 49° 24° (NNE) 1,322 3.9 -27.6°
